Location: Piombino
(42.9256°N, 10.5259°E)
Time: 11:55:21
(UTC+02:00)

ISS - Visible Passes

Search period start: 19 July 2019 00:00
Search period end: 29 July 2019 00:00
Orbit: 409 x 418 km, 51.6° (Epoch: 19 July)

Date Brightness Start Highest point End Pass type
(mag) Time Alt. Az. Time Alt. Az. Time Alt. Az.
19 Jul -0.9 00:41:40 10° NW 00:44:06 18° N 00:46:31 10° NE visible
19 Jul -1.3 02:18:49 10° NW 02:21:36 24° NNE 02:24:22 10° ENE visible
19 Jul -3.9 03:55:17 10° WNW 03:58:36 85° SW 04:01:55 10° SE visible
19 Jul -3.1 22:14:06 10° WSW 22:17:24 58° NNW 22:20:43 10° NE visible
19 Jul -1.0 23:52:01 10° WNW 23:54:36 20° N 23:57:10 10° NE visible
20 Jul -1.1 01:29:33 10° NW 01:32:07 20° N 01:34:41 10° ENE visible
20 Jul -3.2 03:06:01 10° NW 03:11:56 15° ESE 03:12:35 10° ESE visible
20 Jul -2.4 04:45:53 19° SW 04:45:53 19° SW 04:48:06 10° S visible
20 Jul -3.8 21:24:45 10° SW 21:28:06 86° SE 21:31:26 10° ENE visible
20 Jul -1.3 23:02:19 10° WNW 23:05:07 24° NNW 23:07:54 10° NE visible
21 Jul -0.9 00:40:11 10° NW 00:42:37 18° N 00:45:02 10° NE visible
21 Jul -1.4 02:16:48 10° NW 02:18:02 19° NW 02:18:02 19° NW visible
21 Jul -1.7 22:12:38 10° W 22:15:39 30° NNW 22:18:40 10° NE visible
21 Jul -0.9 23:50:41 10° NW 23:53:05 18° N 23:55:28 10° NE visible
22 Jul -1.4 01:27:35 10° NW 01:29:27 23° NNW 01:29:27 23° NNW visible
22 Jul -2.4 21:23:01 10° W 21:26:14 42° NNW 21:29:26 10° NE visible
22 Jul -1.0 23:01:04 10° NW 23:03:32 19° N 23:06:00 10° NE visible
23 Jul -1.4 00:38:19 10° NW 00:41:02 23° NNE 00:41:15 22° NNE visible
23 Jul -1.1 22:11:22 10° WNW 22:14:00 21° NNW 22:16:38 10° NE visible
23 Jul -1.2 23:48:59 10° NW 23:51:31 20° N 23:53:12 14° NE visible
24 Jul -0.8 01:25:29 10° NW 01:26:00 14° NW 01:26:00 14° NW visible
24 Jul -1.4 21:21:37 10° WNW 21:24:29 25° NNW 21:27:20 10° NE visible
24 Jul -1.0 22:59:33 10° NW 23:01:58 18° N 23:04:22 10° NE visible
25 Jul -1.5 00:36:14 10° NW 00:38:03 25° NNW 00:38:03 25° NNW visible
25 Jul -1.0 22:09:58 10° NW 22:12:23 18° N 22:14:47 10° NE visible
25 Jul -1.9 23:46:57 10° NW 23:49:51 26° NNE 23:50:09 26° NNE visible
26 Jul -1.1 21:20:17 10° WNW 21:22:48 19° N 21:25:18 10° NE visible
26 Jul -1.5 22:57:38 10° NW 23:00:19 22° NNE 23:02:17 14° ENE visible
27 Jul -1.1 00:34:05 10° NW 00:35:05 18° NW 00:35:05 18° NW visible
27 Jul -1.3 22:08:15 10° NW 22:10:44 19° N 22:13:13 10° NE visible
27 Jul -2.3 23:44:46 10° NW 23:47:15 38° NNW 23:47:15 38° NNW visible
28 Jul -1.2 21:18:43 10° NW 21:21:07 18° N 21:23:31 10° NE visible
28 Jul -2.3 22:55:28 10° NW 22:58:32 32° NNE 22:59:26 27° NE visible
